Location: Armstrong
(40.9123°N, 82.0110°W)
Time: 08:27:13
(UTC+00:00)

Meteor 2-10 Rocket - Pass Details

Date: 29 October 2020
Orbit: 734 x 885 km, 81.2° (Epoch: 29 November)

Event Time Altitude Azimuth Distance (km) Brightness Sun altitude
Rises 22:50:14 0° 156° (SSE) 3,306 6.7 -5.1°
Reaches altitude 10° 22:53:00 10° 143° (SE) 2,353 5.8 -5.6°
Maximum altitude 22:57:15 25° 90° (E) 1,519 4.5 -6.3°
Drops below altitude 10° 23:01:24 10° 36° (NE) 2,295 5.5 -7.1°
Sets 23:04:04 0° 23° (NNE) 3,206 6.4 -7.6°
